Location: Ariel
(45.9570°N, 122.5700°W)
Time: 02:08:15
(UTC-07:00)

Transit 2A Rocket - Pass Details

Date: 28 July 2019
Orbit: 591 x 912 km, 66.7° (Epoch: 25 August)

Event Time Altitude Azimuth Distance (km) Brightness Sun altitude
Rises 05:08:21 0° 275° (W) 3,451 7.9 -6.6°
Reaches altitude 10° 05:12:15 10° 300° (WNW) 2,456 7.4 -6.1°
Maximum altitude 05:15:07 14° 331° (NNW) 2,136 7.4 -5.7°
Drops below altitude 10° 05:17:54 10° 2° (N) 2,352 8.1 -5.3°
Sets 05:21:30 0° 28° (NNE) 3,204 9.5 -4.8°
